Regional Weather Roundup
Issued by NWS

Home | Current Version | Previous Version | Graphics & Text | Print | Product List | Glossary Off
Versions: 1 2 3 4 5 6 7 8 9 10 11 12 13 14 15 16 17 18 19 20 21 22 23 24 25 26 27 28 29 30 31 32 33 34 35 36 37 38 39 40 41 42 43 44 45 46 47 48 49 50

000
ASUS43 KMPX 191401
RWRMN
WEATHER ROUNDUP FOR MINNESOTA
NATIONAL WEATHER SERVICE TWIN CITIES/CHANHASSEN MN
900 AM CDT SAT APR 19 2014


NOTE: "FAIR" INDICATES FEW OR NO CLOUDS BELOW 12,000 FEET WITH NO
SIGNIFICANT WEATHER AND/OR OBSTRUCTIONS TO VISIBILITY. N/A MEANS
CURRENT SKY AND/OR WEATHER CONDITIONS ARE NOT AVAILABLE.

MNZ060>063-068>070-191500-
   Twin Cities Metro

CITY           SKY/WX    TMP DP  RH WIND       PRES   REMARKS
TWIN CITIES    PTSUNNY   46  31  55 SE24G33   30.12F
ST PAUL        MOSUNNY   45  30  55 S20G28    30.14F
CRYSTAL        PTSUNNY   47  31  53 SE16G26   30.09S
BLAINE         PTSUNNY   46  34  61 SE24G31   30.11R
EDEN PRAIRIE   PTSUNNY   48  32  53 S21G29    30.09F
LAKEVILLE      MOSUNNY   45  32  61 SE18G24   30.11F
SOUTH ST PAUL  MOSUNNY   46  30  53 SE17G25   30.12F
LAKE ELMO      FAIR      45  32  61 SE20G25   30.15F
$$
MNZ001>005-007-008-013>017-022>024-027-028-191500-
   Northwest Minnesota

CITY           SKY/WX    TMP DP  RH WIND       PRES   REMARKS
BEMIDJI        CLOUDY    44  36  74 S18G25    29.85F
HALLOCK        CLOUDY    45  39  81 S15       29.72R
ROSEAU         CLOUDY    41  36  81 SE15      29.76F
WARROAD        CLOUDY    37  34  87 SE18G24   29.79F
THIEF RVR FALL PTSUNNY   46  37  71 S16       29.78S
CROOKSTON      PTSUNNY   50  41  71 SW16      29.79R
FOSSTON        CLOUDY    46  37  71 S22G33    29.80R
DETROIT LAKES  CLOUDY    48  41  76 S17       29.84S
MOORHEAD       CLOUDY    48  45  87 S8        29.84R
PARK RAPIDS    CLOUDY    44  38  79 S16G28    29.88R
$$
MNZ006-009>011-018-025>026-191500-
   North Central Minnesota

CITY           SKY/WX    TMP DP  RH WIND       PRES   REMARKS
BAUDETTE       CLOUDY    38  32  79 SE10G26   29.83F
FLAG ISLAND    CLOUDY    36  30  80 SE24G33   29.79F
INTL FALLS     CLOUDY    35  31  85 SE17G24   29.95F WCI  25
WASKISH        CLOUDY    41  34  75 SE16G24   29.85F
BIG FORK       CLOUDY    37  32  81 S13G26    29.94F
LONGVILLE      DRIZZLE   39  36  87 SE12G18   29.93R
GRAND RAPIDS   CLOUDY    37  32  81 SE22G30   29.95F
CRANE LAKE     MIX PCPN  32  30  93 SE5       30.05F WCI  27
ORR            DRIZZLE   34  30  86 SE12G20   29.98F WCI  25
COOK           RAIN      34  30  86 SE12G20   30.00F WCI  25
$$
MNZ012-019>021-037-191500-
   Northeast Minnesota

CITY           SKY/WX    TMP DP  RH WIND       PRES   REMARKS
DULUTH         CLOUDY    33  29  85 SE18      30.10F WCI  22
ELY            MIX PCPN  34  30  86 SE21      30.06F WCI  22
HIBBING        CLOUDY    35  31  85 SE15      30.04F WCI  25
EVELETH        CLOUDY    34  32  93 SE9       30.07F WCI  26
DULUTH HARBOR  MIX PCPN  34  30  86 NE13      30.16S WCI  25
TWO HARBORS    RAIN      30  27  86 E12       30.15S WCI  21
SILVER BAY     RAIN      30  30 100 NE9       30.17F WCI  22
GRAND MARAIS     N/A     33  28  81 NE17      30.31F WCI  22
G MARAIS ARPRT CLOUDY    27  21  80 E13G21    30.25F WCI  16
$$
MNZ029>031-032-039>041-046>048-054>057-064-191500-
   West Central Minnesota

CITY           SKY/WX    TMP DP  RH WIND       PRES   REMARKS
FERGUS FALLS   CLOUDY    48  39  71 S24G30    29.83F
WHEATON        CLOUDY    54  46  76 SE8       29.88R
MORRIS         CLOUDY    48  43  81 S22       29.88F
ALEXANDRIA     CLOUDY    48  38  68 S26G36    29.93R
ELBOW LAKE     FAIR      49  41  74 S26G33    29.86F
WADENA         CLOUDY    45  37  76 S23G31    29.89R
GLENWOOD       DRIZZLE   46  37  71 S23G32    29.94S
APPLETON       CLOUDY    54  43  66 S14       29.91S
BENSON         DRIZZLE   48  41  76 S14G24    29.93F
ORTONVILLE     CLOUDY    54  43  66 S12       29.88F
MADISON        CLOUDY    57  45  62 S13       29.92R
WILLMAR        FAIR      46  37  71 SE15      30.00R
$$
MNZ033>034-036-042>043-049>051-058-059-191500-
   Central Minnesota

CITY           SKY/WX    TMP DP  RH WIND       PRES   REMARKS
ST CLOUD       CLOUDY    44  33  65 SE16G25   30.01F
SAUK CENTRE    CLOUDY    43  36  74 S18G31    29.97S
PAYNESVILLE    CLOUDY    45  35  67 S15G24    30.00S
AITKIN         CLOUDY    43  34  70 S22G30    29.98F
PINE RIVER     LGT RAIN  41  36  81 S17       29.97S
BRAINERD       CLOUDY    50  34  54 S24G37    29.94F
STAPLES        LGT RAIN  45  36  70 S16G29    29.93R
LONG PRAIRIE   FAIR      43  37  81 SE26G32   29.95F
LITTLE FALLS   PTSUNNY   45  34  65 S16G24    29.99S
LITCHFIELD     CLOUDY    46  37  71 SE14G29   30.01F
BUFFALO        CLOUDY    45  33  64 SE15G22   30.07S
MAPLE LAKE     CLOUDY    45  36  71 SE18G28   30.05F
$$
MNZ037-044-045-052-053-191500-
   East Central Minnesota

CITY           SKY/WX    TMP DP  RH WIND       PRES   REMARKS
PRINCETON      CLOUDY    45  34  65 SE18G29   30.06S
MORA           CLOUDY    37  30  75 S13G21    30.09S
CAMBRIDGE      CLOUDY    45  32  61 SE14G21   30.07S
RUSH CITY      CLOUDY    39  30  69 SE22      30.10S
HINCKLEY       CLOUDY    41  30  65 SE12G21   30.09F
CLOQUET        CLOUDY    34  30  86 SE10G16   30.08F WCI  26
MCGREGOR       CLOUDY    41  32  70 SE16G24   30.03S
$$
MNZ071>073-080-081-089-090-097-098-191500-
   Southwest Minnesota

CITY           SKY/WX    TMP DP  RH WIND       PRES   REMARKS
MONTEVIDEO     CLOUDY    52  43  71 S14G20    29.95R
GRANITE FALLS  CLOUDY    51  42  71 S20G25    29.98R
CANBY          PTSUNNY   55  42  63 S13G21    29.92S
MARSHALL       CLOUDY    54  41  62 S18G25    29.95R
REDWOOD FALLS  CLOUDY    51  37  58 S23G31    29.99R
OLIVIA         CLOUDY    50  37  62 S17G24    29.99R
PIPESTONE      PTSUNNY   54  41  62 S24G30    29.95R
WINDOM         CLOUDY    54  39  58 S20G30    30.00F
WORTHINGTON    CLOUDY    52  37  58 S23G33    30.00F
JACKSON        PTSUNNY   52  36  54 S22G28    30.03F
TRACY          CLOUDY    53  42  65 S23G32    29.94S
SLAYTON        PTSUNNY   52  41  65 S20G29    29.98R
$$
MNZ065>067-074>077-082>085-091>093-191500-
   South Central Minnesota

CITY           SKY/WX    TMP DP  RH WIND       PRES   REMARKS
MANKATO        PTSUNNY   46  34  61 S24G32    30.08S
NEW ULM        CLOUDY    50  37  62 S21G35    30.03S
ST JAMES       CLOUDY    50  37  62 SE23G32   30.04F
FAIRMONT       PTSUNNY   48  34  57 S26       30.07F
GLENCOE        PTSUNNY   48  35  60 SE15G29   30.05S
FARIBAULT      PTSUNNY   46  28  49 SE16G23   30.14R
OWATONNA       MOSUNNY   43  32  65 SE22G38   30.11F
WASECA         PTSUNNY   43  34  70 SE25G35   30.11S
ALBERT LEA     MOSUNNY   43  34  70 SE25G32   30.13F
$$
MNZ078>079-086>088-094>096-191500-
   Southeast Minnesota

CITY           SKY/WX    TMP DP  RH WIND       PRES   REMARKS
ROCHESTER      MOSUNNY   42  29  59 SE26G35   30.19F
RED WING       SUNNY     45  27  49 SE21G30   30.15F
STANTON        MOSUNNY   45  30  56 S21G26    30.12R
DODGE CENTER   MOSUNNY   45  30  57 SE26G36   30.15F
WINONA         SUNNY     45  27  49 SE14      30.26F
AUSTIN         SUNNY     43  30  61 SE15G22   30.18F
PRESTON        MOSUNNY   41  26  54 SE17G23   30.25S
$$
ABBREVIATIONS USED IN REMARKS
   TC - TEMPERATURES IN CELSIUS
  WCI - WIND CHILL INDEX
   HX - HEAT INDEX
  VSB - VISIBILITY
$$



USA.gov is the U.S. government's official web portal to all federal, state and local government web resources and services.